Location: Newark
(37.7892°N, 97.1083°W)
Time: 11:33:34
(UTC+00:00)

Hubble Space Telescope - Pass Details

Date: 15 December 2019
Orbit: 536 x 540 km, 28.5° (Epoch: 20 January)

Event Time Altitude Azimuth Distance (km) Brightness Sun altitude
Exits shadow 11:25:35 11° 185° (S) 1,704 3.4 -25.0°
Maximum altitude 11:27:02 13° 163° (SSE) 1,600 3.5 -24.8°
Drops below altitude 10° 11:28:57 10° 135° (SE) 1,784 4.1 -24.4°
Sets 11:32:17 0° 107° (ESE) 2,677 5.8 -23.7°
